TimePST,TemperatureF,Dew PointF,Humidity,Sea Level PressureIn,VisibilityMPH,Wind Direction,Wind SpeedMPH,Gust SpeedMPH,PrecipitationIn,Events,Conditions,WindDirDegrees,DateUTC
12:15 AM,35.6,33.8,93,29.95,10.0,ESE,5.8,-,N/A,,Clear,120,2012-12-15 08:15:00
12:35 AM,37.4,33.8,87,29.94,10.0,SE,8.1,-,N/A,,Clear,130,2012-12-15 08:35:00
12:55 AM,37.4,33.8,87,29.93,10.0,ESE,6.9,-,N/A,,Clear,120,2012-12-15 08:55:00
1:15 AM,37.4,33.8,87,29.93,10.0,ESE,6.9,-,N/A,,Clear,120,2012-12-15 09:15:00
1:35 AM,37.4,33.8,87,29.93,10.0,SE,6.9,-,N/A,,Clear,140,2012-12-15 09:35:00
1:55 AM,37.4,35.6,93,29.92,10.0,SE,8.1,-,N/A,,Clear,130,2012-12-15 09:55:00
2:15 AM,35.6,33.8,93,29.91,10.0,ESE,6.9,-,N/A,,Clear,110,2012-12-15 10:15:00
2:35 AM,37.4,33.8,87,29.92,10.0,ESE,4.6,-,N/A,,Clear,120,2012-12-15 10:35:00
2:55 AM,37.4,33.8,87,29.91,10.0,SE,6.9,-,N/A,,Clear,140,2012-12-15 10:55:00
3:15 AM,37.4,33.8,87,29.91,10.0,SE,4.6,-,N/A,,Mostly Cloudy,140,2012-12-15 11:15:00
3:35 AM,37.4,33.8,87,29.89,10.0,ESE,6.9,-,N/A,,Overcast,120,2012-12-15 11:35:00
3:55 AM,37.4,33.8,87,29.88,10.0,ESE,6.9,-,N/A,,Overcast,110,2012-12-15 11:55:00
4:15 AM,37.4,33.8,87,29.88,10.0,ESE,3.5,-,N/A,,Overcast,120,2012-12-15 12:15:00
4:35 AM,37.4,33.8,87,29.86,10.0,SE,4.6,-,N/A,,Overcast,140,2012-12-15 12:35:00
4:55 AM,39.2,33.8,81,29.85,10.0,ESE,6.9,-,N/A,,Overcast,120,2012-12-15 12:55:00
5:15 AM,39.2,33.8,81,29.84,10.0,SE,5.8,-,N/A,,Overcast,130,2012-12-15 13:15:00
5:35 AM,41.0,33.8,76,29.83,10.0,SE,6.9,-,N/A,,Overcast,140,2012-12-15 13:35:00
5:55 AM,41.0,35.6,81,29.83,10.0,SE,9.2,-,N/A,,Overcast,140,2012-12-15 13:55:00
6:15 AM,41.0,35.6,81,-9999,10.0,SE,8.1,-,N/A,Rain,Rain,140,2012-12-15 14:15:00
6:35 AM,41.0,37.4,87,-9999,10.0,SE,6.9,-,0.01,Rain,Light Rain,140,2012-12-15 14:35:00
6:55 AM,41.0,37.4,87,29.81,7.0,SE,8.1,-,0.03,Rain,Light Rain,140,2012-12-15 14:55:00
7:15 AM,41.0,37.4,87,29.80,10.0,SSE,12.7,-,0.02,Rain,Light Rain,160,2012-12-15 15:15:00
7:35 AM,41.0,37.4,87,29.80,7.0,SE,10.4,-,0.04,Rain,Light Rain,140,2012-12-15 15:35:00
7:55 AM,41.0,37.4,87,29.80,7.0,SE,6.9,-,0.05,Rain,Light Rain,140,2012-12-15 15:55:00
8:15 AM,41.0,37.4,87,29.80,7.0,SE,8.1,-,0.01,Rain,Light Rain,140,2012-12-15 16:15:00
8:35 AM,39.2,37.4,93,29.80,5.0,SE,5.8,-,0.02,Rain,Light Rain,130,2012-12-15 16:35:00
8:55 AM,39.2,37.4,93,29.80,4.0,SE,6.9,-,0.03,,Drizzle,140,2012-12-15 16:55:00
9:15 AM,39.2,37.4,93,29.79,5.0,SE,9.2,-,0.01,Rain,Light Rain,130,2012-12-15 17:15:00
9:35 AM,39.2,37.4,93,29.79,7.0,SE,8.1,-,0.03,Rain,Light Rain,130,2012-12-15 17:35:00
9:55 AM,39.2,37.4,93,29.78,7.0,SE,8.1,-,0.05,Rain,Light Rain,140,2012-12-15 17:55:00
10:15 AM,41.0,37.4,87,29.78,10.0,SE,8.1,-,0.01,Rain,Light Rain,140,2012-12-15 18:15:00
10:55 AM,41.0,37.4,87,29.76,5.0,SE,9.2,-,0.04,Rain,Light Rain,140,2012-12-15 18:55:00
11:15 AM,41.0,39.2,93,29.74,7.0,South,10.4,-,N/A,Rain,Rain,170,2012-12-15 19:15:00
11:55 AM,42.8,41.0,93,29.72,7.0,South,16.1,23.0,0.03,Rain,Rain,180,2012-12-15 19:55:00
12:15 PM,42.8,41.0,93,29.70,7.0,South,20.7,27.6,0.01,Rain,Light Rain,180,2012-12-15 20:15:00
12:35 PM,42.8,41.0,93,29.70,5.0,South,20.7,35.7,0.03,Rain,Light Rain,180,2012-12-15 20:35:00
12:55 PM,42.8,41.0,93,29.68,4.0,South,23.0,31.1,0.05,Rain,Light Rain,170,2012-12-15 20:55:00
1:15 PM,42.8,41.0,93,29.67,5.0,South,26.5,34.5,0.02,Rain,Light Rain,180,2012-12-15 21:15:00
1:35 PM,42.8,41.0,93,29.66,5.0,South,20.7,31.1,0.03,Rain,Light Rain,170,2012-12-15 21:35:00
1:55 PM,42.8,42.8,100,29.65,2.0,South,26.5,34.5,0.06,Rain,Rain,190,2012-12-15 21:55:00
2:15 PM,44.6,44.6,100,29.66,1.0,West,16.1,43.7,0.11,Rain,Light Rain,280,2012-12-15 22:15:00
2:35 PM,44.6,42.8,93,29.68,1.5,WNW,13.8,26.5,0.13,Rain,Rain,300,2012-12-15 22:35:00
2:55 PM,44.6,44.6,100,29.70,2.5,WNW,19.6,29.9,0.15,Rain,Rain,300,2012-12-15 22:55:00
3:15 PM,42.8,42.8,100,29.71,4.0,WNW,15.0,26.5,N/A,Rain,Light Rain,290,2012-12-15 23:15:00
3:35 PM,42.8,41.0,93,29.72,3.0,WNW,13.8,27.6,0.02,Rain,Light Rain,290,2012-12-15 23:35:00
3:55 PM,42.8,41.0,93,-9999,5.0,West,15.0,19.6,0.03,Rain,Rain,280,2012-12-15 23:55:00
4:15 PM,44.6,41.0,87,29.73,5.0,WNW,12.7,18.4,N/A,Rain,Rain,290,2012-12-16 00:15:00
4:35 PM,44.6,42.8,93,29.73,5.0,NW,15.0,21.9,N/A,Rain,Light Rain,310,2012-12-16 00:35:00
4:55 PM,44.6,41.0,87,29.75,7.0,NW,13.8,24.2,N/A,,Overcast,310,2012-12-16 00:55:00
5:15 PM,46.4,39.2,76,29.75,10.0,NW,16.1,21.9,N/A,,Overcast,310,2012-12-16 01:15:00
5:35 PM,44.6,41.0,87,29.77,7.0,NW,13.8,-,N/A,,Overcast,310,2012-12-16 01:35:00
5:55 PM,44.6,39.2,81,29.77,7.0,NW,15.0,20.7,N/A,,Overcast,320,2012-12-16 01:55:00
6:15 PM,44.6,39.2,81,-9999,10.0,WNW,10.4,-,N/A,,Overcast,290,2012-12-16 02:15:00
6:35 PM,44.6,37.4,76,29.78,7.0,West,8.1,18.4,N/A,Rain,Light Rain,260,2012-12-16 02:35:00
6:55 PM,44.6,37.4,76,29.79,7.0,WNW,11.5,17.3,N/A,,Mostly Cloudy,290,2012-12-16 02:55:00
7:15 PM,44.6,35.6,71,29.80,10.0,WNW,10.4,16.1,N/A,,Scattered Clouds,300,2012-12-16 03:15:00
7:35 PM,46.4,35.6,66,29.81,10.0,West,13.8,21.9,N/A,,Scattered Clouds,280,2012-12-16 03:35:00
7:55 PM,44.6,35.6,71,29.82,10.0,West,10.4,17.3,N/A,,Scattered Clouds,280,2012-12-16 03:55:00
8:15 PM,44.6,35.6,71,29.83,10.0,West,10.4,-,N/A,,Scattered Clouds,260,2012-12-16 04:15:00
8:35 PM,44.6,37.4,76,29.84,10.0,NNW,8.1,-,N/A,,Mostly Cloudy,340,2012-12-16 04:35:00
8:55 PM,44.6,37.4,76,29.85,10.0,WNW,9.2,-,N/A,,Mostly Cloudy,290,2012-12-16 04:55:00
9:15 PM,44.6,37.4,76,29.85,10.0,West,10.4,16.1,N/A,,Scattered Clouds,270,2012-12-16 05:15:00
9:35 PM,44.6,35.6,71,29.86,10.0,West,10.4,17.3,N/A,,Scattered Clouds,270,2012-12-16 05:35:00
9:55 PM,44.6,37.4,76,29.86,10.0,WSW,11.5,17.3,N/A,,Mostly Cloudy,240,2012-12-16 05:55:00
10:15 PM,44.6,35.6,71,29.87,10.0,WSW,5.8,-,N/A,,Overcast,250,2012-12-16 06:15:00
10:35 PM,44.6,37.4,76,29.88,10.0,West,11.5,-,N/A,,Overcast,260,2012-12-16 06:35:00
10:55 PM,44.6,35.6,71,29.88,10.0,WSW,13.8,25.3,N/A,,Drizzle,250,2012-12-16 06:55:00
11:15 PM,44.6,35.6,71,29.88,10.0,SW,8.1,-,N/A,,Overcast,230,2012-12-16 07:15:00
11:55 PM,46.4,35.6,66,29.88,10.0,WSW,9.2,16.1,N/A,,Scattered Clouds,250,2012-12-16 07:55:00